Regional Weather Roundup
Issued by NWS

Home | Current Version | Previous Version | Text Only | Print | Product List | Glossary On
Versions: 1 2 3 4 5 6 7 8 9 10 11 12 13 14 15 16 17 18 19 20 21 22 23 24 25 26 27 28 29 30 31 32 33 34 35 36 37 38 39 40 41 42 43 44 45 46 47 48 49 50
000
ASUS46 KSEW 301310
RWRWA

WASHINGTON REGIONAL WEATHER ROUNDUP
NATIONAL WEATHER SERVICE SEATTLE WA
600 AM PDT SAT APR 30 2016

NOTE:"FAIR" INDICATES FEW OR NO CLOUDS BELOW 12,000 FEET WITH NO
SIGNIFICANT WEATHER AND/OR OBSTRUCTIONS TO VISIBILITY.

WAZ505-507>509-301400-
SEATTLE, TACOMA, EVERETT, AND VICINITY

CITY           SKY/WX    TMP DP  RH WIND       PRES   REMARKS
EVERETT        CLEAR     45  41  86 NW5       30.32S
BOEING FIELD   PTCLDY    45  44  97 SE6       30.34R
RENTON         PTCLDY    46  44  93 CALM      30.33R
SEATAC AIRPORT MOCLDY    46  43  89 S3        30.33R
JBLM-MCCHORD   PTCLDY    40  40 100 E2        30.33R
PUYALLUP       CLOUDY    43  43 100 CALM      30.33R
BREMERTON      CLEAR     37  37 100 CALM      30.35R
JBLM-FT LEWIS  CLOUDY    43  43  99 SE3       30.33R
TACOMA NARROWS MOCLDY    45  43  93 CALM      30.33S
$$

WAZ001-503-506-510-514-515-301400-
NORTH INTERIOR

CITY           SKY/WX    TMP DP  RH WIND       PRES   REMARKS
BELLINGHAM     CLEAR     46  44  93 S5        30.32R
FRIDAY HARBOR  CLEAR     40  39  97 CALM      30.33R
EASTSOUND      CLEAR     45  41  87 CALM      30.31R
PORT ANGELES   CLEAR     45  37  73 SW7       30.33R
EDIZ HOOK      FAIR      46  39  77 SW6       30.33R
PORT TOWNSEND  FAIR      39  39 100 CALM      30.34R
NAS WHIDBEY    PTCLDY    47  45  93 SW6       30.36R
ARLINGTON        N/A     37  30  75 CALM      30.35R VSB 3/4
BURLINGTON     CLEAR     41  41 100 CALM      30.33R
$$

WAZ020-022-039-040-504-511-512-301400-
SOUTHWEST INTERIOR

CITY           SKY/WX    TMP DP  RH WIND       PRES   REMARKS
SHELTON        CLEAR     37  36  96 CALM      30.32R
OLYMPIA        FOG       36  35  96 CALM      30.34R VSB 1/2
CHEHALIS       CLOUDY    39  39 100 CALM      30.34S
KELSO          CLOUDY    41  37  87 NW3       30.37S
VANCOUVER      CLEAR     39  38  96 CALM      30.33R
SCAPPOOSE, OR  CLEAR     40  38  93 CALM      30.33R
PORTLAND, OR   PTCLDY    42  39  89 SW3       30.34R
$$

WAZ021-516-517-301400-
WASHINGTON COAST

CITY           SKY/WX    TMP DP  RH WIND       PRES   REMARKS
FORKS          CLOUDY    46  42  86 E8        30.33R
HOQUIAM          N/A    N/A N/A N/A MISG      30.34R
ASTORIA, OR    MOCLDY    45  42  89 SE5       30.33S
$$

WAZ019-023-024-040-518-519-301400-
CASCADE MOUNTAINS AND COLUMBIA GORGE

CITY           SKY/WX    TMP DP  RH WIND       PRES   REMARKS
STAMPEDE PASS  FOG       34  32  92 VRB6      30.24R VSB<1/4
TROUTDALE, OR  CLOUDY    49  40  71 VRB3      30.33R
THE DALLES, OR CLEAR     51  40  65 NW10G18   30.23R
$$

WAZ026-027-041>044-520-521-301400-
EAST SLOPES

CITY           SKY/WX    TMP DP  RH WIND       PRES   REMARKS
OMAK           CLEAR     44  36  73 NW8       30.18R
WENATCHEE      CLOUDY    53  33  46 NW15      30.19R
ELLENSBURG     MOCLDY    48  34  58 NW18G25   30.19R
YAKIMA         CLOUDY    55  31  39 W8        30.20R
$$

WAZ028-034-035-301400-
COLUMBIA BASIN

CITY           SKY/WX    TMP DP  RH WIND       PRES   REMARKS
EPHRATA        CLOUDY    53  37  54 N12       30.13R
MOSES LAKE     CLOUDY    49  39  68 NE3       30.16R
PASCO          CLOUDY    53  38  56 SW6       30.18R
HERMISTON, OR  CLOUDY    51  40  65 SW9       30.19R
$$

WAZ036>038-301400-
NORTHEAST WASHINGTON

CITY           SKY/WX    TMP DP  RH WIND       PRES   REMARKS
SPOKANE GEIGER DRIZZLE   46  44  93 NE6       30.15R FOG
SPOKANE FELTS  CLOUDY    48  46  93 CALM      30.16R
FAIRCHILD AFB  CLOUDY    46  46 100 NE3       30.14R
COEURDALENE,ID MOCLDY    45  43  93 CALM      30.13R
DEER PARK      CLOUDY    46  44  93 MISG      30.16R
$$

WAZ029>033-301400-
SOUTHEAST WASHINGTON

CITY           SKY/WX    TMP DP  RH WIND       PRES   REMARKS
PULLMAN        CLOUDY    44  42  93 W8        30.16R
LEWISTON, ID   LGT RAIN  49  46  90 E6        30.15R
WALLA WALLA    LGT RAIN  48  42  80 S9        30.18R
PENDLETON, OR  CLOUDY    49  36  61 W15       30.18R
$$



USA.gov is the U.S. government's official web portal to all federal, state and local government web resources and services.